Regional Weather Roundup
Issued by NWS Wakefield, VA

Home | Current Version | Previous Version | Graphics & Text | Print | Product List | Glossary On
Versions: 1 2 3 4 5 6 7 8 9 10 11 12 13 14 15 16 17 18 19 20 21 22 23 24 25 26 27 28 29 30 31 32 33 34 35 36 37 38 39 40 41 42 43 44 45 46 47 48 49 50
000
ASUS41 KAKQ 191310
RWRAKQ

REGIONAL WEATHER ROUNDUP
NATIONAL WEATHER SERVICE WAKEFIELD VA
900 AM EDT SUN OCT 19 2014

Note: "fair" indicates few or no clouds below 12,000 feet with no
significant weather and/or obstructions to visibility. * = Denotes
station may not report precipitation (e.g., rain,snow,etc.),
thunder or fog.

VAZ042-051-052>054-056-191400-
NORTHERN VIRGINIA

CITY           SKY/WX    TMP DP  RH WIND       PRES   REMARKS
WASH NATIONAL  PTSUNNY   52  33  48 NW20G28   30.05R
DULLES         PTSUNNY   47  33  58 NW22G32   30.06R
FORT BELVOIR   CLOUDY    51  35  53 NW14G24   30.05R
QUANTICO       PTSUNNY   51  32  48 NW16G24   30.07R
FREDERICKSBRG* MOSUNNY   53  37  54 NW13G18   30.05R
STAFFORD*      SUNNY     49  32  50 NW23G32   30.10R
WARRENTON      PTSUNNY   53  40  61 N8        30.07R
CULPEPER*      SUNNY     52  32  46 N14G23    30.07R
MANASSAS*      CLOUDY    52  34  50 NW15      30.07R
LEESBURG*      CLOUDY    48  34  57 N18G33    30.08R
WINCHESTER     MOSUNNY   46  28  49 NW18G30   30.07R
FRONT ROYAL*   CLOUDY    46  32  57 W9        30.08R
LURAY*         SUNNY     48  32  53 N9G24     30.08R
$$

VAZ048-049-060>072-079>083-191400-
CENTRAL AND SOUTH CENTRAL VIRGINIA...AND NORTH CENTRAL NORTH CAROLINA

CITY           SKY/WX    TMP DP  RH WIND       PRES   REMARKS
RICHMOND       MOSUNNY   55  40  56 NW13      30.04R
CHESTERFIELD*  SUNNY    N/A N/A N/A NW9       30.05R
PETERSBURG*    SUNNY     52  39  62 NW7       30.05R
HANOVER        SUNNY     52  41  66 NW6       30.06R
TAPPAHANNOCK*  CLOUDY    53  40  61 W5        30.03R
CHARLOTTSVILLE SUNNY     52  34  50 N13G21    30.05R
ORANGE*        SUNNY     52  36  54 NW8       30.07R
LOUISA*        SUNNY     52  39  62 NW8       30.04R
FARMVILLE*     SUNNY     50  39  66 NW3       30.06R
CREWE*         SUNNY     51  40  66 W7        30.06R
FORT PICKETT*  SUNNY     50  42  72 W6        30.06R
LUNENBURG*     SUNNY     50  41  70 NW5       30.06R
SOUTH HILL*    SUNNY     54  43  66 NW3       30.12R
LAWRENCEVILLE* SUNNY     50  43  75 W5        30.06R
ROANOKE RAPIDS SUNNY     52  43  71 NW8       30.06R
RALEIGH        SUNNY     52  41  66 NW3       30.10R
$$

VAZ088>098-191400-
SOUTHEAST VIRGINIA

CITY           SKY/WX    TMP DP  RH WIND       PRES   REMARKS
NORFOLK        SUNNY     55  41  59 NW13G23   30.00R
VIRGINIA BEACH PTSUNNY   58  41  53 NW22G29   29.98R
NORFOLK NAVAL  MOSUNNY   57  42  57 NW21      30.02R
WEST POINT*    CLOUDY    55  40  58 NW8       30.04R
NEWPORT NEWS   MOSUNNY   56  42  59 NW8G18    30.02R
LANGLEY AFB    SUNNY     55  43  64 NW13G25   30.01R
FORT EUSTIS    SUNNY     55  42  60 NW18G24   30.01R
WILLIAMSBURG*  SUNNY     55  43  62 N15G25    30.03R
HR EXEC AP*    SUNNY     52  41  66 CALM      30.04R
FRANKLIN*      SUNNY     54  43  66 NW7       30.04R
WAKEFIELD      SUNNY     54  41  61 NW6       30.03R
$$

VAZ020-022-025-037-045-191400-
WEST CENTRAL AND SOUTHWEST VIRGINIA

CITY           SKY/WX    TMP DP  RH WIND       PRES   REMARKS
STAUNTON*      SUNNY     48  33  55 N8        30.09R
HOT SPRINGS VA PTSUNNY   37  30  77 W22G33    30.02R
LYNCHBURG      SUNNY     48  39  71 S6        30.09R
DANVILLE       SUNNY     52  40  63 W5        30.11R
SOUTH BOSTON*  NOT AVBL
MARTINSVILLE   SUNNY     52  39  62 NW9       30.14R
ROANOKE        MOSUNNY   49  34  56 NW12      30.12R
BLACKSBURG     CLOUDY    45  39  81 NW8       30.14R
DUBLIN*        CLOUDY    46  39  79 NW6       30.16R
MARION*        CLOUDY    44  37  76 W8        30.19R
HILLSVILLE*    CLOUDY    42  35  75 NW20      30.13R
RICHLANDS*     CLOUDY    43  39  85 NW9       30.18R
WISE*          CLOUDY    41  41 100 NW3       30.21R
ABINGDON*      CLOUDY    46  42  85 NW5       30.20R
$$

MDZ021>025-VAZ099-100-191400-
SOUTHERN MARYLAND AND THE DELMARVA PENINSULA

CITY           SKY/WX    TMP DP  RH WIND       PRES   REMARKS
PATUXENT RIVER PTSUNNY   53  38  56 NW20      30.00R
BAY BRIDGE APT   N/A     52  36  54 NW18G30   30.00R
LEONARDTOWN    PTSUNNY   50  34  53 NW14      30.03R
DOVER          MOSUNNY   51  39  62 NW14G24   29.94R
GEORGETOWN     MOSUNNY   53  39  59 NW8       29.96R
EASTON         CLOUDY    54  41  62 NW12G24   30.02R
CAMBRIDGE      CLOUDY    54  39  58 NW16G25   29.99R
SALISBURY      MOSUNNY   55  38  52 NW18G28   29.96R
OCEAN CITY     PTSUNNY   52  40  63 NW14G21   29.95R
WALLOPS ISLAND CLOUDY    55  40  56 N18G26    29.97R
ACCOMACK*      CLOUDY    54  41  62 NW15G24   29.97R
$$

NCZ012>017-030>032-191400-
EASTERN NORTH CAROLINA

CITY           SKY/WX    TMP DP  RH WIND       PRES   REMARKS
ELIZABETH CITY SUNNY     57  42  57 NW15G21   30.01R
AHOSKIE*       SUNNY     52  42  69 CALM      30.05R
EDENTON*       SUNNY     56  44  65 N12       30.03R
CURRITUCK*     SUNNY     55  40  56 NW7       30.01R
KILL DEVIL HLS SUNNY     57  42  58 NW10G20   29.98R
MANTEO         SUNNY     57  42  57 NW15G21   29.99R
CAPE HATTERAS  SUNNY     58  43  57 N12G23    29.99R
TARBORO*       SUNNY     54  46  75 NW7       30.07R
GOLDSBORO      SUNNY     55  49  82 NW9       30.07R
WASHINGTON     SUNNY     54  46  74 NW6       30.05R
GREENVILLE     SUNNY     55  46  71 NW6       30.07R
NEW BERN       SUNNY     58  47  66 NW8       30.06R
WILMINGTON     SUNNY     57  47  69 N12       30.08R
$$

VAZ048-191400-
ELSEWHERE

CITY           SKY/WX    TMP DP  RH WIND       PRES   REMARKS
HARRISBURG PA  LGT RAIN  45  36  70 NW14      30.02R
BALTIMORE      PTSUNNY   51  35  54 NW18G24   30.02R
ANNAPOLIS      CLOUDY    52  37  56 NW16G26   30.01R
ANDREWS AFB    CLOUDY    50  35  54 NW16G22   30.02R
WILMINGTON DE  SUNNY     50  34  54 NW17G31   29.97R
PHILADELPHIA   PTSUNNY   51  36  56 NW15G22   29.95R
WILDWOOD NJ*   PTSUNNY   52  36  54 NW10G25   29.94R
ATLANTIC CITY  PTSUNNY   51  39  63 NW16G26   29.90R
HENDERSON NC   SUNNY     51  39  63 NW6       30.09R
GREENSBORO     MOSUNNY   51  43  74 W8        30.12R
ROCKY MOUNT    SUNNY     53  46  77 NW7       30.07R
FAYETTEVILLE   SUNNY     56  43  61 NW12      30.11R
CHARLOTTE      MOSUNNY   53  42  66 CALM      30.13R
$$

VAZ100-191400-
MARINE

STATION/POSITION TIME  TEMP    WIND        PRES    WAVE   SWELL
                       AIR SEA DIR/SP/G            HT/PER HT/PER
                 (UTC) (F)     (DEG/KT/KT) (MB)    (FT/S) (FT/S)
44066 TX TWR #4  1300   58 66  330/ 21/ 25 1007.3F   6/ 6   3/12
15NM E FENWICK I 1300   56 67  300/ 25/ 33 1011.9R   6/ 6   2/11
THOMAS POINT MD  1300   51 64  320/ 19/ 24 1016.9R
GOOSES REEF MD   1300   54     330/ 17/ 23 1016.0R
POTOMAC MD       1300   55     340/ 19/ 27 1015.3R
STINGRAY PT      1300   55     330/ 17/ 23 1016.0R
JAMESTOWN VA     1300   56     350/ 14/ 19   N/A
CHESAPEAKE LGHT  1200   56     330/ 24/ 26 1014.5R
CAPE HENRY BUOY  1300      70                N/A     5/ 5   2/13
1ST LANDING BUOY 1300   58     340/ 23/ 31 1014.8R
CAPE CHARLES BUO 1300      70                N/A     4/ 4   2/10
64NM E OF VA BCH 1300   60 70  330/ 21/ 25 1012.6R   5/ 6   2/11
44100 DUCK FRF   1300      71                N/A     6/ 6   2/13
44056 DUCK FRF   1300                        N/A     5/ 6   2/13
DIAMOND SHLS NC  1300   62     320/ 23/ 29 1014.5R   5/ 5   2/11
CAPE LOOKOUT NC  1200   58     340/ 13/ 17 1015.4R
$$


USA.gov is the U.S. government's official web portal to all federal, state and local government web resources and services.